Location: Waco, TX
(31.5480°N, 97.1670°W)
Time: 13:37:25
(UTC-05:00)

ISS - Pass Details

Date: 10 May 2021
Orbit: 417 x 422 km, 51.6° (Epoch: 15 May)

Event Time Altitude Azimuth Distance (km) Brightness Sun altitude
Rises 06:48:51 0° 325° (NW) 2,368 -0.1 1.8°
Reaches altitude 10° 06:51:07 10° 336° (NNW) 1,502 -1.0 2.3°
Maximum altitude 06:54:08 30° 39° (NE) 786 -1.4 2.9°
Drops below altitude 10° 06:57:08 10° 103° (ESE) 1,497 0.2 3.5°
Sets 06:59:23 0° 114° (ESE) 2,359 0.9 3.9°
